Simultaneous Nadir Overpasses (SNOs) Predictions

Prediction of SNOs between AQUA and GOES-15 Satellite Orbit:

Table of predicted SNOs for the next 14.0 days since TLE Epoch: 8/23/2014
Index Date Time (AQUA) AQUA Lat,Lon GOES-15 Lat,Lon Distance(km) Time Diff (sec)
1 08/23/2014 10:50:30 0.43,-138.66 -0.29,-135.37 374.21 80
2 08/25/2014 10:38:17 -0.20,-135.69 -0.29,-135.33 41.34 80
3 08/27/2014 10:26:04 -0.83,-132.73 -0.29,-135.29 291.25 80
4 08/27/2014 22:47:28 -0.26,-137.92 0.29,-135.29 298.88 80
5 08/29/2014 22:35:14 0.33,-134.95 0.30,-135.25 33.14 80
6 08/31/2014 22:23:01 0.99,-131.99 0.30,-135.19 364.08 80
7 09/01/2014 10:44:16 0.10,-137.15 -0.30,-135.17 224.91 80
8 09/03/2014 10:32:02 -0.52,-134.18 -0.30,-135.10 105.13 80
9 09/03/2014 22:53:24 -0.62,-139.36 0.30,-135.09 485.79 80
10 09/05/2014 10:19:48 -1.15,-131.21 -0.31,-135.03 434.44 80
11 09/05/2014 22:41:11 0.01,-136.40 0.31,-135.02 156.53 80




NCC Satellite Simultaneous Nadir Overpasses (SNOs) Prediction Service
